FW1970 Weather Reports


Display with metric or nautical units.
time (UTC)temp
F
wind
direction
speed
MPH
gust
MPH
rain 1hr
in
rain 24hr
in
rain mn
in
humidity
%
barometer
mb
20260901170024 86 263 11.0 17.0 0.00 0.00 0.00 49 1014.8
20260901164522 86 254 8.0 18.0 0.00 0.00 0.00 49 1014.8
20260901163020 86 262 8.0 20.0 0.00 0.00 0.00 50 1014.8
20260901161516 85 271 9.0 16.0 0.00 0.00 0.00 52 1014.8
20260901160018 84 254 9.0 16.0 0.00 0.00 0.00 53 1014.6
20260901154517 83 298 8.0 13.0 0.00 0.00 0.00 55 1014.9
20260901153018 83 287 9.0 18.0 0.00 0.00 0.00 55 1014.6
20260901151507 82 219 12.0 18.0 0.00 0.00 0.00 55 1014.8
20260901150003 82 241 9.0 14.0 0.00 0.00 0.00 56 1014.6
20260901144600 81 216 9.0 14.0 0.00 0.00 0.00 57 1014.5
20260901143055 79 236 7.0 12.0 0.00 0.00 0.00 59 1014.9
20260901141559 78 360 8.0 13.0 0.00 0.00 0.00 60 1015.0
20260901140051 78 255 7.0 11.0 0.00 0.00 0.00 60 1015.0
20260901134546 78 360 4.0 14.0 0.00 0.00 0.00 62 1015.1
20260901133043 77 360 7.0 11.0 0.00 0.00 0.00 62 1015.0
20260901131540 77 360 8.0 12.0 0.00 0.00 0.00 63 1015.3
20260901130039 76 360 8.0 11.0 0.00 0.00 0.00 63 1015.3
20260901124538 76 360 5.0 10.0 0.00 0.00 0.00 64 1015.6
20260901123136 76 237 6.0 15.0 0.00 0.00 0.00 65 1015.5
20260901121537 75 214 4.0 8.0 0.00 0.00 0.00 66 1015.6
20260901120041 75 221 4.0 8.0 0.00 0.00 0.00 66 1015.4
20260901114531 75 257 3.0 7.0 0.00 0.00 0.00 67 1015.3
20260901113030 74 231 3.0 6.0 0.00 0.00 0.00 67 1015.0
20260901111525 74 225 4.0 7.0 0.00 0.00 0.00 67 1014.9
20260901110030 74 238 6.0 9.0 0.00 0.00 0.00 68 1015.0
20260901104524 74 232 1.0 6.0 0.00 0.00 0.00 68 1015.0
20260901103024 74 234 4.0 8.0 0.00 0.00 0.00 68 1015.1
20260901101520 74 212 4.0 7.0 0.00 0.00 0.00 68 1015.2
20260901100021 73 227 4.0 7.0 0.00 0.00 0.00 68 1015.1
20260901094521 74 230 0.0 3.0 0.00 0.00 0.00 68 1015.1
20260901093019 74 229 2.0 4.0 0.00 0.00 0.00 68 1015.1
20260901091518 74 225 2.0 5.0 0.00 0.00 0.00 69 1015.2
20260901090018 73 234 1.0 5.0 0.00 0.00 0.00 69 1015.1
20260901084517 73 233 2.0 5.0 0.00 0.00 0.00 69 1015.1
20260901083023 73 222 2.0 7.0 0.00 0.00 0.00 70 1015.0
20260901081518 73 240 2.0 6.0 0.00 0.00 0.00 70 1015.0
20260901080016 73 248 4.0 8.0 0.00 0.00 0.00 70 1015.1
20260901074514 73 229 3.0 6.0 0.00 0.00 0.00 70 1015.1
20260901073011 73 226 1.0 4.0 0.00 0.00 0.00 69 1015.1
20260901071510 73 227 2.0 7.0 0.00 0.00 0.00 69 1015.3
20260901070021 73 231 2.0 6.0 0.00 0.00 0.00 69 1015.2
20260901064508 73 224 4.0 7.0 0.00 0.00 0.00 68 1015.3
20260901063006 73 198 3.0 8.0 0.00 0.00 0.00 68 1015.5
20260901061504 74 215 3.0 6.0 0.00 0.00 0.00 67 1015.4
20260901060002 74 226 3.0 6.0 0.00 0.00 0.00 67 1015.8
20260901054501 74 211 4.0 8.0 0.00 0.00 0.00 66 1016.0
20260901053059 74 234 4.0 7.0 0.00 0.00 0.00 66 1016.2
20260901051558 75 225 3.0 6.0 0.00 0.00 0.00 66 1016.1
20260901050055 75 201 4.0 6.0 0.00 0.00 0.00 66 1015.9
20260901044555 75 207 0.0 3.0 0.00 0.00 0.00 65 1015.6
20260901043052 75 219 2.0 6.0 0.00 0.00 0.00 65 1015.7
20260901041611 76 224 2.0 6.0 0.00 0.00 0.00 65 1015.6
20260901040051 76 228 2.0 5.0 0.00 0.00 0.00 65 1015.6
20260901034546 76 222 2.0 6.0 0.00 0.00 0.00 65 1015.3
20260901033045 76 236 4.0 9.0 0.00 0.00 0.00 66 1014.9
20260901031544 76 229 1.0 7.0 0.00 0.00 0.00 65 1014.9
20260901030043 77 217 3.0 7.0 0.00 0.00 0.00 65 1015.0
20260901024543 77 223 3.0 7.0 0.00 0.00 0.00 65 1015.4
20260901023044 77 173 0.0 9.0 0.00 0.00 0.00 64 1015.4
20260901021547 77 210 2.0 4.0 0.00 0.00 0.00 64 1015.7
20260901020042 78 201 1.0 4.0 0.00 0.00 0.00 63 1016.0
20260901014541 78 202 2.0 5.0 0.00 0.00 0.00 63 1016.1
20260901013039 78 200 0.0 0.0 0.00 0.00 0.00 63 1015.8
20260901011538 78 200 0.0 3.0 0.00 0.00 0.00 62 1015.8
20260901010040 79 199 1.0 4.0 0.00 0.00 0.00 62 1015.7
20260901004544 79 201 0.0 3.0 0.00 0.00 0.00 62 1015.6
20260901003037 79 201 0.0 3.0 0.00 0.00 0.00 61 1015.3
20260901001541 79 219 0.0 2.0 0.00 0.00 0.00 60 1015.2
20260901000036 80 219 1.0 4.0 0.00 0.00 0.00 60 1015.1
20260831234536 80 224 1.0 3.0 0.00 0.00 0.00 59 1015.1
20260831233034 80 224 0.0 3.0 0.00 0.00 0.00 59 1015.2
20260831231544 81 224 1.0 3.0 0.00 0.00 0.00 58 1015.1
20260831230038 81 226 1.0 3.0 0.00 0.00 0.00 58 1015.2
20260831224530 81 229 0.0 3.0 0.00 0.00 0.00 57 1015.6
20260831223035 81 229 0.0 2.0 0.00 0.00 0.00 57 1015.6
20260831221532 81 229 1.0 3.0 0.00 0.00 0.00 56 1015.5
20260831220029 82 229 1.0 3.0 0.00 0.00 0.00 55 1015.5
20260831214529 82 229 1.0 4.0 0.00 0.00 0.00 54 1015.5
20260831213032 82 181 2.0 5.0 0.00 0.00 0.00 54 1015.7
20260831211531 83 169 2.0 4.0 0.00 0.00 0.00 52 1015.7
20260831210025 83 148 1.0 5.0 0.00 0.00 0.00 53 1015.8
20260831204528 84 273 2.0 6.0 0.00 0.00 0.00 50 1015.8
20260831203027 83 211 2.0 8.0 0.00 0.00 0.00 52 1016.3
20260831201519 82 225 2.0 4.0 0.00 0.00 0.00 54 1016.4
20260831200022 81 225 2.0 6.0 0.00 0.00 0.00 55 1016.5
20260831194517 80 237 2.0 4.0 0.00 0.00 0.00 57 1016.7
20260831193023 80 244 4.0 7.0 0.00 0.00 0.00 56 1016.8
20260831191515 80 230 1.0 4.0 0.00 0.00 0.00 57 1016.9
20260831190016 80 206 3.0 6.0 0.00 0.00 0.00 56 1017.0
20260831184514 80 235 3.0 6.0 0.00 0.00 0.00 56 1017.1
20260831183014 80 238 2.0 5.0 0.00 0.00 0.00 56 1017.1
20260831181513 80 238 5.0 9.0 0.00 0.00 0.00 55 1017.2
20260831180012 80 283 4.0 8.0 0.00 0.00 0.00 55 1017.4
20260831174511 79 267 2.0 9.0 0.00 0.00 0.00 55 1017.4
20260831173010 80 276 7.0 12.0 0.00 0.00 0.00 54 1017.4
20260831171511 81 246 6.0 10.0 0.00 0.00 0.00 52 1017.4